Other Public Products
Issued by NWS Grand Forks, ND

Home | Current Version | Previous Version | Graphics & Text | Print | Product List | Glossary On
Versions: 1 2 3 4 5 6 7 8 9 10 11 12 13 14 15 16 17 18 19 20 21 22 23 24 25 26 27 28 29 30 31 32 33 34 35 36 37 38 39 40 41 42 43 44 45 46 47 48 49 50
000
FPUS83 KFGF 031510
OPUFGF
PRAIRIE TO PINES WEATHER ROUNDUP
NATIONAL WEATHER SERVICE EASTERN NORTH DAKOTA/GRAND FORKS ND
1000 AM CDT THU SEP 03 2015

 **SATELLITE DATA USED TO AUGMENT SKY COVER AT AUTOMATED STATIONS**
 *****  WEATHER ACROSS EASTERN NORTH DAKOTA  *****

CITY           SKY/WX    TMP DP  RH WIND       PRES   REMARKS
GRAND FORKS    CLOUDY    74  69  85 SE18G24   29.77F
GRAND FORKS AF CLOUDY    72  70  94 S20G26    29.77S
GRAND CITY NWS   N/A     73 N/A N/A SE14        N/A
BUXTON         NOT AVBL
DEVILS LAKE    CLOUDY    72  64  78 SE21G26   29.72S
FARGO          CLOUDY    77  70  79 SE17G25   29.79S
WAHPETON ARPT  CLOUDY    72  66  83 SE17G23   29.82S
$$

 *****  WEATHER ACROSS CENTRAL AND WESTERN NORTH DAKOTA  *****

CITY           SKY/WX    TMP DP  RH WIND       PRES   REMARKS
JAMESTOWN      CLOUDY    75  70  84 S14G25    29.74F
BISMARCK       MOSUNNY   76  67  73 SE13      29.70R
MINOT          CLOUDY    73  70  90 E6        29.67F FOG
MINOT AFB      NOT AVBL
GARRISON         N/A     75  68  78 S9        29.68R
WILLISTON      SUNNY     70  54  56 N14       29.69S
DICKINSON      MOSUNNY   80  48  32 W8        29.68S
HETTINGER      MOSUNNY   77  48  35 W3        29.73S
$$

 *****  OTHER OBSERVATIONS NORTHEAST NORTH DAKOTA  *****

CITY           SKY/WX    TMP DP  RH WIND       PRES   REMARKS
WALHALLA       FAIR      72  72 100 MISG      29.75F FOG
LANGDON        CLOUDY    70  70 100 SE16      29.76F FOG
CAVALIER       FOG       72  70  94 S12G20    29.75F VSB 1
GRAFTON        CLOUDY    72  72 100 SE18G25   29.77F FOG
CANDO          NOT AVBL
FORT TOTTEN      N/A     72  71  98 S14       29.95S
ROLLA          CLOUDY    72  72 100 S12G21    29.75S
RUGBY          CLOUDY    75  72  88 SE14G21   29.70R
 ***** THE ABOVE OBSERVATIONS ARE NON NWS ARE NOT QUALITY
        CONTROLLED AND MAY MIS-REPORT RAIN FOR SNOW...
$$

 *****  OTHER OBSERVATIONS SOUTHEAST NORTH DAKOTA *****

CITY           SKY/WX    TMP DP  RH WIND       PRES   REMARKS
COOPERSTOWN    NOT AVBL
VALLEY CITY    CLOUDY    72  72 100 S15G22    29.78S FOG
OAKES            N/A     77  72  83 SE14      29.77S
GWINNER          N/A     75  75 100 SE15      29.79S
SHEYENNE NWR     N/A     74  70  87 S14       29.95S
BUFFALO        NOT AVBL
WYNDMERE         N/A     73  72  94 SE13        N/A
 ***** THE ABOVE OBSERVATIONS ARE NON NWS ARE NOT QUALITY
       CONTROLLED AND MAY MIS-REPORT RAIN FOR SNOW...
$$

  *****  WEATHER ACROSS NORTHERN MINNESOTA  *****

CITY           SKY/WX    TMP DP  RH WIND       PRES   REMARKS
FLAG ISLAND    CLOUDY    66  63  88 S22       29.87F
WARROAD        CLOUDY    66  64  94 SE12      29.88S
ROSEAU         CLOUDY    70  64  83 SE10      29.85F
HALLOCK        CLOUDY    75  72  88 SE16      29.77F
THF RVR FALLS  MOSUNNY   75  70  83 SE17      29.83F
HALSTAD        NOT AVBL
FOSSTON        SUNNY     75  64  69 SE12G18   29.85F
BAUDETTE       CLOUDY    67  63  87 SE16G23   29.90F
WASKISH        PTSUNNY   68  66  94 E10       29.91F
CROOKSTON      SUNNY     79  70  73 S22       29.80F
$$
  *****  WEATHER ACROSS CENTRAL AND WEST MINNESOTA  *****

CITY           SKY/WX    TMP DP  RH WIND       PRES   REMARKS
BEMIDJI        CLOUDY    70  65  83 SE13      29.91F
PARK RAPIDS    SUNNY     74  65  73 SE13      29.91S
WADENA         CLOUDY    72  68  88 SE10      29.90S
DETROIT LAKES  MOSUNNY   73  68  83 SE20      29.87F
MOORHEAD       PTSUNNY   77  70  78 S14       29.81S
FERGUS FALLS   SUNNY     75  72  88 SE17      29.83S
ELBOW LAKE     PTSUNNY   74  70  88 SE12G20   29.85S
MORRIS MN      CLOUDY    72  70  94 SE10      29.85S FOG
STAPLES        CLOUDY    72  66  83 E7        29.91S
WHEATON        CLOUDY    70  68  94 SE13      29.85R FOG
$$
  *****  WEATHER ELSEWHERE ACROSS MINNESOTA  *****

CITY           SKY/WX    TMP DP  RH WIND       PRES   REMARKS
DULUTH         DRZL/FOG  62  61  96 E10       30.00S VSB 1/4
INTRNTL FALLS  MOSUNNY   69  63  81 SE9       29.95F
ELY            SUNNY     68  61  77 SE8       30.00S
CLOQUET        FOG       63  61  94 E9        29.99S VSB 3/4
BRAINERD       CLOUDY    69  65  86 VRB7      29.94S
HIBBING        CLOUDY    64  62  93 SE6       29.99S
ALEXANDRIA     CLOUDY    69  69 100 E12       29.90S FOG
SAINT CLOUD    CLOUDY    71  68  90 E8        29.91S
MINNEAPOLIS    CLOUDY    72  70  93 E8        29.92R FOG
$$

  *****  WEATHER ACROSS SOUTH DAKOTA  *****

CITY           SKY/WX    TMP DP  RH WIND       PRES   REMARKS
SIOUX FALLS    SUNNY     75  69  81 S8        29.85S
BROOKINGS      SUNNY     73  68  83 SE12      29.86S
WATERTOWN      SUNNY     76  69  79 S14       29.83S
HURON          SUNNY     75  69  81 S9        29.79R
SISSETON         N/A     72  70  93 S12       29.82R
ABERDEEN       SUNNY     78  70  76 S15       29.76S
MITCHELL       SUNNY     76  70  82 SE10      29.80F
PIERRE           N/A     77  64  64 MISG      29.73F
MOBRIDGE       SUNNY     79  64  60 SE12      29.70S
RAPID CITY     MOSUNNY   77  55  46 VRB3      29.80S
$$

  *****  SOME WEATHER IN NEARBY STATES *****

CITY           SKY/WX    TMP DP  RH WIND       PRES   REMARKS
GLASGOW MT     SUNNY     62  40  44 NW15      29.86R
GREAT FALLS MT CLOUDY    56  37  49 E15       29.93S
CHEYENNE WY    PTSUNNY   70  46  42 CALM      30.08F
SCOTTSBLUFF NE MOSUNNY   73  54  51 W5        29.92F
OMAHA NE       MOSUNNY   80  68  66 S14       29.87S
DES MOINES IA  PTSUNNY   78  69  73 S10       29.92S
DAVENPORT IA   SUNNY     81  71  71 SW10      29.96S
CHICAGO IL     MOSUNNY   82  69  64 W12       29.94F
EAU CLAIRE WI  CLOUDY    67  66  97 E10       29.95S
LA CROSSE WI   SUNNY     79  70  74 CALM      29.92S
$$

  *****  SOME NATIONAL WEATHER *****

CITY           SKY/WX    TMP DP  RH WIND       PRES   REMARKS
LA GUARDIA NY  MOSUNNY   84  64  50 NE8       29.88S
RALEIGH NC     PTSUNNY   79  70  74 CALM      29.99R
ATLANTA GA     CLOUDY    81  70  69 N6        30.03S
NEW ORLEANS LA CLOUDY    84  75  74 NE8       30.00R HX  92
OKLAHOMA CITY  MOSUNNY   80  67  64 S12       30.00R
ALBUQUERQUE NM PTSUNNY   67  49  52 S5        30.19S
SALT LAKE CITY PTSUNNY   76  41  28 S14       29.92S
LOS ANGELES CA CLOUDY    68  59  73 SE7       29.92R
BOISE ID       MOSUNNY   56  44  64 NW15      29.92R
SEATTLE WA     PTSUNNY   53  49  86 S6        30.02R
$$

*** WEATHER ACROSS MANITOBA...SASKATCHEWAN AND ONTARIO ***
                ***ONTARIO***

CITY           SKY/WX    TMP DP  RH WIND       PRES   REMARKS
GERALDTON      MOSUNNY   75  59  57 SE7       30.04F
THUNDER BAY    SUNNY     68  57  68 CALM      30.02S
SIOUX LOOKOUT  PTSUNNY   70  61  73 S8        29.98S
TORONTO        CLOUDY    79  72  78 CALM      29.96S
BIG TROUT LK   MOSUNNY   66  63  88 SW8       29.81R
PICKLE LAKE    PTSUNNY   73  61  64 SW6       29.98F
DRYDEN         SUNNY     72  61  68 S14       29.95S
KENORA         MOSUNNY   72  63  73 S13       29.91S
$$
                *** MANITOBA***

CITY           SKY/WX    TMP DP  RH WIND       PRES   REMARKS
BRANDON        CLOUDY    75  72  88 SE9       29.71S FOG
DAUPHIN        SUNNY     75  68  78 VRB3      29.70F
ISLAND LAKE    PTSUNNY   72  64  78 S7        29.77R
PILOT MOUND      N/A     70  68  94 SE12        N/A
THE PAS        MOSUNNY   70  59  68 S5        29.69R
THOMPSON       CLOUDY    61  59  94 E2        29.72R
WINNIPEG       CLOUDY    70  68  94 S20       29.78S
LYNN LAKE      PTSUNNY   64  57  77 E13       29.62F
CHURCHILL      PTSUNNY   52  50  93 E6        29.77F
GILLAM         PTSUNNY   63  57  82 NE3       29.76R
$$
                ***SASKATCHEWAN***

CITY           SKY/WX    TMP DP  RH WIND       PRES   REMARKS
ESTEVAN        PTSUNNY   72  63  73 N13       29.71R
KINDERSLEY     NOT AVBL
LLOYDMINSTER   CLOUDY    46  43  87 W15G21    29.88R
PRINCE ALBERT  CLOUDY    57  48  72 NW12      29.79R
REGINA         PTSUNNY   57  50  77 N14G20    29.78S



USA.gov is the U.S. government's official web portal to all federal, state and local government web resources and services.